Temperature
20 19 18 18 18 18 17 17 17 17 17 17 17 17 17 17 17 17 17 17 17 17 17 17 16 16 17 16 16 16 16 17 16 17 17 17 17 17 17 17 17 17 16
20 19 18 18 18 18 18 18 18 18 17 17 17 17 17 17 17 17 17 17 17 17 17 17 17 17 16 16 16 16 17 17 17 17 18 18 18 17 17 17 17 17 17
20 19 18 18 18 17 18 18 18 18 17 17 17 17 17 17 17 17 17 17 17 17 16 16 17 16 16 16 16 16 16 17 17 17 17 18 19 18 18 17 17 16 17
21 19 18 18 18 18 18 18 17 18 17 17 17 17 17 17 17 17 17 17 17 17 17 16 16 16 16 16 16 16 16 16 17 17 17 17 17 18 18 18 17 17 17
21 20 19 18 18 18 17 17 17 17 17 17 17 17 17 17 17 17 17 17 17 17 16 16 16 16 16 16 16 16 16 16 17 17 17 17 17 17 18 18 18 18 17
21 20 19 18 18 18 18 17 17 17 17 17 17 17 17 17 17 17 17 17 17 17 16 16 16 16 16 16 16 16 16 16 16 17 17 17 17 18 18 18 18 18 18
21 20 19 18 18 18 18 17 17 17 17 17 17 17 17 17 17 17 17 17 17 17 16 16 16 16 16 16 16 16 16 16 16 16 16 17 17 17 18 18 18 18 18
22 21 20 19 18 18 18 17 17 17 17 17 17 17 17 17 17 17 17 17 17 17 16 16 16 16 16 16 16 16 16 16 16 16 16 16 17 17 17 17 18 18 18
22 21 20 19 18 18 18 17 17 17 17 17 17 17 17 17 17 17 17 17 17 17 16 16 16 16 16 16 16 16 15 16 16 16 16 16 16 16 16 17 17 17 18
22 21 20 19 18 18 18 17 17 17 17 17 17 17 17 17 17 17 17 16 16 16 16 16 16 16 16 16 16 15 15 15 15 16 15 16 16 16 16 16 16 16 17
22 21 20 19 19 18 18 18 17 17 17 17 17 17 17 17 17 17 16 16 16 16 16 16 16 16 16 16 16 15 15 15 15 15 15 15 15 15 16 16 16 16 16
22 21 20 19 19 18 18 18 17 17 17 17 17 17 17 17 17 17 16 16 16 16 16 16 16 16 16 16 16 15 15 15 15 15 15 15 15 15 15 15 15 15 15
22 21 20 19 18 18 18 18 17 17 17 17 17 17 17 17 17 16 16 16 16 16 16 16 16 16 16 16 15 15 15 15 15 15 15 15 15 15 15 15 15 15 15
21 20 19 19 18 18 18 17 17 17 17 17 17 17 17 17 17 17 16 16 16 16 16 16 16 16 16 15 15 15 15 15 15 14 14 14 14 14 14 14 14 14 14
21 20 19 18 18 18 17 17 17 17 17 16 16 16 16 16 16 16 16 16 16 16 16 16 15 15 15 15 15 15 14 14 14 14 14 14 14 14 14 14 14 14 14
20 20 19 18 18 17 17 17 17 17 16 16 16 16 16 16 16 16 16 16 15 15 15 15 15 15 15 15 15 14 14 14 14 14 13 13 13 13 13 13 13 13 13
20 19 18 18 17 17 17 17 17 16 16 16 16 16 16 16 16 16 15 15 15 15 15 15 14 14 14 14 14 14 14 13 13 13 12 12 12 12 12 12 12 12 12
18 18 18 17 17 17 17 16 16 16 16 16 16 16 16 15 15 15 15 15 15 14 14 14 14 14 13 13 13 13 13 13 12 12 12 11 11 11 11 11 11 11 11
18 17 17 17 17 17 16 16 16 16 15 15 15 15 15 15 15 15 15 14 14 14 13 13 13 13 13 12 12 12 12 12 11 11 11 10 10 10 10 10 10 9 9
17 17 17 17 16 16 16 16 16 15 15 15 15 15 15 15 15 14 14 14 13 13 13 12 12 12 12 11 11 11 11 11 10 10 9 9 9 9 9 9 8 8 8
16 16 16 16 16 16 16 15 15 15 15 15 14 14 14 14 14 13 13 13 13 12 12 11 11 11 11 11 10 10 10 9 9 9 8 8 8 8 8 8 8 8 7
16 16 15 15 15 15 15 15 15 14 14 14 14 13 13 13 13 13 12 12 12 11 11 11 10 10 10 10 9 9 9 9 8 8 8 7 7 7 7 7 7 7 6
15 15 15 15 15 14 15 14 14 14 13 13 13 13 13 12 12 12 11 11 11 11 10 10 9 9 8 8 8 8 8 8 8 7 7 7 7 6 6 6 6 6 6
14 14 14 14 14 14 14 14 13 13 13 13 12 12 11 11 11 11 10 10 10 10 9 9 8 8 8 7 7 7 7 7 7 6 6 6 6 5 5 5 5 5 5
13 13 13 13 13 13 13 13 13 13 12 12 11 11 11 10 10 10 9 9 9 9 9 8 8 8 7 7 7 7 6 6 6 6 6 6 6 5 5 5 4 4 4
13 13 13 12 12 12 12 12 12 12 12 11 11 10 10 10 9 9 9 8 8 8 8 8 7 7 7 7 6 6 6 6 6 6 6 6 5 5 5 5 5 4 4
Wind_Speed
9 10 11 12 13 13 13 13 14 14 11 9 9 8 8 8 7 7 9 9 9 8 7 5 6 5 5 5 6 5 6 5 3 3 3 4 4 4 4 4 4 5 6
10 11 12 12 13 13 13 14 13 13 13 10 8 7 7 6 6 6 8 9 10 9 8 6 6 6 4 6 6 5 4 4 4 4 3 3 4 5 5 4 5 5 6
11 12 12 13 13 13 13 13 13 13 13 11 9 7 6 5 6 7 7 9 10 10 8 8 7 6 7 6 7 6 7 5 5 4 3 3 2 3 4 5 5 4 5
11 11 12 13 13 13 13 12 12 12 12 12 11 11 9 8 9 8 7 8 9 10 10 8 7 7 6 6 7 6 5 6 5 4 3 3 3 3 2 5 5 5 5
10 11 11 11 11 12 12 11 12 12 12 12 12 11 9 8 7 8 8 8 8 9 9 9 8 7 6 6 5 5 6 6 6 5 4 4 4 5 4 2 3 5 5
9 10 10 10 10 11 11 11 12 12 12 12 11 11 11 9 9 10 9 9 8 8 9 9 8 8 7 7 7 6 7 5 5 5 5 5 4 5 4 3 4 3 3
9 10 10 10 10 11 11 12 12 12 12 13 12 12 12 11 11 10 9 8 8 8 9 9 8 8 7 7 7 7 6 7 6 6 6 5 5 4 4 4 3 3 3
9 10 10 10 11 11 12 12 12 12 12 12 12 11 11 10 9 9 8 9 7 8 9 10 9 8 9 8 7 7 7 6 6 7 5 5 5 4 5 5 4 5 4
9 9 10 10 10 11 11 12 12 11 12 12 12 11 11 11 10 9 9 8 8 8 10 10 10 9 9 8 8 7 7 6 7 7 7 6 5 4 5 5 5 6 6
9 9 9 10 9 10 10 11 11 11 10 11 10 10 11 10 9 9 9 8 8 8 9 10 10 9 9 9 9 8 7 7 6 5 4 5 5 4 4 5 4 5 6
10 9 9 9 10 10 10 9 9 9 9 9 10 9 10 9 9 9 9 8 7 8 9 9 9 9 9 9 9 8 7 8 7 6 6 6 5 4 4 5 5 5 6
9 10 9 9 9 9 9 9 8 9 9 9 9 9 9 9 9 8 8 7 7 8 8 8 9 9 9 9 9 8 8 7 7 6 6 6 5 4 5 4 5 5 4
9 9 9 9 8 8 8 8 8 8 8 8 8 8 8 9 8 7 7 7 7 7 7 8 8 8 7 7 7 7 6 6 5 5 5 4 3 3 3 4 4 4 4
9 9 9 9 8 8 7 7 7 7 7 7 8 8 8 8 7 7 6 6 6 6 6 6 7 6 6 6 6 5 5 4 3 2 2 1 1 1 2 3 3 4 4
9 9 9 9 8 8 8 7 7 7 7 7 7 7 7 6 6 6 6 6 6 6 6 6 5 5 5 5 6 5 5 5 4 3 3 4 7 9 5 3 2 2 2
9 8 8 9 9 8 8 8 7 7 7 7 7 7 7 7 6 6 6 6 6 5 6 5 5 5 4 7 7 6 6 6 5 5 5 6 8 10 12 13 13 10 4
7 8 8 7 7 7 8 8 8 8 8 7 7 7 7 7 6 7 7 6 6 7 7 7 7 6 7 10 11 9 7 7 6 6 6 6 6 7 7 10 11 13 13
6 6 6 7 7 7 8 8 8 8 8 8 7 7 8 8 8 8 8 8 7 8 8 8 8 8 8 11 12 12 10 9 8 8 7 7 7 7 6 8 9 10 10
5 5 5 6 6 7 8 8 8 8 8 8 7 7 8 9 9 9 9 8 9 9 9 8 9 9 8 10 10 10 9 9 10 9 9 8 8 9 6 8 8 8 8
4 4 5 6 6 6 7 8 8 8 8 8 8 8 8 9 10 10 10 9 10 10 10 10 9 9 9 9 9 8 8 10 10 9 10 14 12 11 9 7 7 7 6
5 5 6 6 5 6 7 8 7 7 7 8 9 9 9 10 11 11 10 11 11 11 11 12 10 10 10 11 10 7 7 8 9 9 8 9 13 13 13 10 8 6 3
6 6 6 6 6 6 8 8 8 8 9 10 11 11 10 10 10 12 11 11 12 13 12 12 11 9 9 10 11 12 11 9 10 9 9 10 13 14 12 10 6 3 3
6 6 7 8 7 6 8 10 9 10 11 11 11 11 11 11 11 11 12 10 10 10 10 10 10 9 9 10 14 15 14 13 11 11 13 11 10 10 10 8 3 3 4
6 7 8 9 8 8 9 10 10 11 12 13 12 11 11 11 11 9 8 9 9 9 9 9 10 10 9 9 9 10 12 13 13 12 11 9 7 6 6 4 3 5 6
6 7 9 10 10 9 10 10 10 12 13 13 12 12 11 12 12 11 10 9 8 7 8 9 9 10 9 8 8 7 8 8 8 7 6 5 5 5 5 5 5 5 5
8 9 10 10 11 11 11 10 10 12 13 13 12 11 11 11 11 13 13 19 15 18 17 14 11 12 13 13 14 14 12 9 2 3 6 6 5 5 5 4 4 5 6
Wind_Direction
178 173 172 174 173 176 174 174 178 177 175 174 176 174 180 184 184 188 187 192 197 192 200 198 180 208 200 203 198 197 187 202 198 207 198 197 204 206 202 215 209 199 204
173 172 172 172 176 177 178 179 181 177 178 178 180 178 176 187 185 188 186 196 200 197 195 201 200 199 196 203 209 212 215 196 196 223 212 206 194 208 204 202 211 214 205
178 176 177 178 180 182 185 186 183 180 181 175 175 172 169 182 186 192 193 199 201 201 204 199 210 199 208 198 206 206 217 211 196 224 246 254 226 191 182 202 206 212 218
178 177 179 181 183 186 186 182 179 181 179 178 183 182 186 194 195 192 191 192 197 198 199 200 203 208 212 194 206 205 219 226 214 198 240 280 327 276 189 191 192 199 216
178 177 181 183 183 183 180 177 177 179 180 184 184 189 198 201 194 191 188 194 191 196 199 199 201 204 211 201 207 193 221 220 228 219 216 219 223 250 266 219 201 200 205
170 172 173 175 180 179 176 175 177 179 181 184 189 196 199 198 193 192 189 194 191 195 198 198 198 201 203 197 202 203 207 227 234 242 232 224 223 231 239 239 227 219 207
167 167 168 172 177 177 175 177 179 181 184 187 191 194 198 198 199 197 194 198 195 195 194 196 196 201 202 203 204 207 217 212 215 228 235 238 243 254 261 267 264 258 229
165 167 168 169 173 176 177 178 182 183 185 188 190 193 196 201 201 199 199 202 207 201 189 194 198 200 202 204 202 210 208 209 216 224 235 240 238 245 255 265 272 266 248
161 167 167 168 172 178 181 179 181 184 187 188 188 192 198 205 203 197 204 206 207 200 191 196 198 200 201 203 202 214 210 205 216 215 211 229 223 231 247 256 266 275 275
163 165 167 169 171 177 178 179 181 185 187 189 192 193 197 201 198 200 200 203 205 204 195 197 200 202 200 200 207 208 205 207 212 226 223 231 236 233 242 252 258 269 276
165 163 164 165 167 171 174 177 179 184 187 192 196 195 193 193 192 197 199 202 205 201 200 199 200 202 202 201 205 214 199 206 206 212 212 222 249 248 248 247 251 255 259
163 162 161 161 164 168 171 174 178 186 189 190 194 195 190 190 191 195 196 198 198 199 199 199 201 203 202 201 202 206 200 204 208 211 214 222 222 231 259 262 258 258 268
160 160 160 163 165 168 171 172 179 184 185 184 188 186 187 187 188 189 190 193 192 195 196 195 198 198 194 193 194 194 191 195 202 205 208 217 222 232 249 257 263 262 256
160 161 161 165 166 167 169 172 175 176 177 178 182 183 189 187 183 184 185 186 185 184 185 184 183 179 176 174 172 170 173 176 181 184 183 194 215 253 269 261 272 276 277
162 162 161 162 165 166 167 169 168 168 169 171 171 172 175 170 169 169 170 170 167 166 162 161 161 160 162 163 158 158 158 151 140 121 103 84 71 55 39 12 343 306 288
163 163 163 163 165 168 169 166 166 166 164 162 159 155 153 151 152 150 148 149 148 145 140 143 141 140 137 109 112 133 136 130 126 118 109 99 87 82 73 65 55 40 29
157 162 164 163 164 169 169 166 165 161 159 158 153 146 142 140 137 138 133 132 130 126 121 118 117 112 99 97 101 102 113 111 109 106 101 95 88 90 93 85 79 63 53
149 156 160 156 159 163 162 158 155 157 158 156 150 143 138 134 130 127 121 116 112 108 102 99 101 100 96 99 102 103 105 99 93 91 93 94 83 71 79 86 76 66 53
144 148 149 147 148 155 157 154 152 153 150 146 142 140 137 133 129 124 120 115 110 104 99 98 98 99 95 92 102 109 110 101 91 81 77 88 89 60 60 86 85 81 79
121 128 132 135 140 148 152 153 152 150 146 142 138 132 130 128 124 120 115 111 107 102 97 90 88 92 91 84 92 106 111 106 99 90 80 70 73 61 52 82 85 81 70
108 115 117 121 125 134 139 139 136 134 127 124 122 118 117 119 118 114 111 110 107 103 98 93 85 82 82 80 75 79 111 115 109 100 88 77 70 65 57 63 71 61 36
113 117 115 108 111 124 130 127 122 120 118 117 113 111 111 112 113 113 112 112 113 108 103 98 91 82 78 77 75 69 72 88 102 99 97 94 85 77 67 68 54 355 319
114 116 115 107 102 111 123 120 117 119 118 113 110 108 106 104 107 112 115 114 114 113 111 108 104 99 96 88 80 78 76 76 92 95 97 104 113 113 89 75 22 359 37
120 117 112 106 99 97 102 109 118 121 118 113 110 108 105 102 97 95 100 106 110 113 114 114 113 112 110 110 111 109 105 106 106 110 115 115 99 104 107 114 64 51 41
124 119 115 111 106 102 99 105 114 119 117 113 111 108 104 101 92 81 69 82 75 84 107 115 118 120 115 93 76 102 109 109 111 124 125 117 106 89 77 69 55 42 35
115 111 111 111 110 107 104 106 111 117 118 116 113 112 111 108 105 100 83 60 67 63 61 64 86 87 92 96 86 82 83 88 123 129 105 95 86 77 68 59 53 42 31
Height
1498 1499 1500 1502 1504 1508 1511 1515 1518 1521 1525 1529 1533 1536 1540 1543 1546 1549 1551 1554 1556 1559 1560 1564 1565 1567 1569 1570 1572 1573 1574 1575 1577 1578 1579 1580 1580 1581 1581 1582 1583 1583 1584
1496 1498 1499 1501 1503 1506 1510 1513 1516 1520 1523 1527 1531 1535 1539 1542 1545 1547 1549 1552 1555 1557 1560 1561 1564 1566 1567 1568 1570 1571 1574 1575 1576 1577 1578 1579 1580 1579 1580 1580 1581 1582 1582
1494 1496 1498 1500 1502 1505 1508 1512 1515 1518 1522 1525 1530 1534 1537 1540 1543 1545 1548 1550 1553 1555 1558 1560 1562 1564 1566 1567 1568 1570 1572 1574 1575 1576 1577 1577 1577 1578 1579 1579 1580 1580 1581
1492 1495 1497 1499 1501 1504 1506 1510 1513 1517 1520 1524 1528 1531 1534 1537 1541 1544 1546 1548 1551 1553 1556 1558 1560 1562 1564 1565 1567 1569 1571 1572 1574 1575 1575 1577 1576 1577 1577 1578 1578 1579 1579
1490 1493 1495 1497 1500 1502 1505 1508 1511 1515 1519 1523 1526 1529 1533 1536 1539 1542 1544 1546 1549 1551 1554 1556 1558 1559 1562 1564 1565 1567 1568 1571 1572 1573 1575 1575 1576 1577 1577 1577 1577 1578 1578
1489 1491 1494 1496 1498 1500 1503 1506 1510 1513 1517 1520 1524 1527 1530 1533 1537 1539 1542 1544 1547 1549 1551 1553 1555 1557 1560 1561 1563 1564 1566 1568 1570 1571 1573 1574 1575 1575 1576 1576 1576 1576 1577
1488 1490 1493 1494 1496 1498 1502 1505 1508 1511 1515 1518 1522 1525 1528 1531 1534 1537 1540 1542 1545 1547 1549 1551 1553 1555 1557 1559 1561 1562 1565 1566 1567 1569 1571 1572 1573 1574 1574 1575 1574 1574 1575
1487 1490 1492 1494 1496 1498 1501 1504 1507 1510 1513 1516 1520 1523 1526 1529 1532 1535 1538 1540 1543 1545 1547 1549 1551 1553 1554 1557 1558 1561 1562 1563 1565 1567 1568 1569 1571 1572 1572 1573 1573 1573 1573
1487 1489 1492 1494 1496 1499 1501 1504 1507 1509 1512 1515 1518 1521 1524 1527 1530 1532 1535 1538 1540 1543 1544 1546 1548 1550 1552 1554 1556 1559 1560 1561 1563 1565 1566 1567 1568 1569 1570 1571 1571 1572 1571
1487 1489 1492 1494 1496 1499 1501 1504 1506 1508 1511 1514 1516 1519 1521 1524 1527 1529 1532 1535 1537 1539 1541 1544 1546 1548 1550 1552 1554 1556 1558 1559 1560 1562 1563 1564 1566 1567 1568 1568 1568 1569 1569
1486 1489 1491 1494 1496 1498 1501 1503 1505 1508 1510 1512 1514 1517 1519 1521 1524 1526 1529 1532 1534 1536 1539 1541 1543 1545 1547 1549 1551 1554 1555 1557 1558 1560 1561 1562 1563 1564 1565 1565 1566 1566 1566
1485 1488 1491 1494 1496 1498 1500 1502 1504 1506 1508 1510 1512 1514 1517 1519 1521 1524 1526 1529 1531 1533 1536 1538 1540 1542 1544 1546 1548 1551 1552 1554 1556 1557 1558 1559 1560 1561 1561 1562 1562 1563 1563
1485 1488 1490 1493 1495 1497 1499 1501 1502 1504 1506 1508 1510 1512 1514 1516 1519 1521 1523 1526 1528 1530 1533 1535 1537 1540 1542 1544 1546 1548 1549 1551 1553 1554 1555 1556 1557 1558 1559 1559 1559 1560 1560
1484 1487 1489 1492 1494 1496 1498 1499 1501 1503 1505 1506 1508 1510 1512 1514 1517 1519 1521 1523 1525 1528 1530 1532 1534 1537 1539 1541 1543 1544 1546 1548 1550 1551 1552 1553 1554 1555 1555 1556 1556 1556 1556
1484 1486 1488 1491 1493 1495 1496 1498 1500 1501 1503 1504 1506 1508 1510 1513 1515 1517 1519 1521 1523 1525 1527 1530 1532 1534 1536 1538 1539 1541 1543 1545 1547 1549 1550 1550 1551 1552 1553 1553 1553 1553 1553
1482 1485 1487 1489 1491 1493 1495 1497 1498 1500 1501 1503 1505 1507 1509 1511 1513 1515 1517 1519 1521 1523 1525 1527 1529 1531 1533 1535 1537 1539 1541 1542 1544 1546 1547 1548 1549 1549 1550 1550 1550 1551 1550
1481 1484 1486 1488 1490 1492 1494 1495 1497 1498 1500 1502 1504 1506 1508 1510 1511 1514 1515 1517 1519 1521 1523 1525 1527 1529 1531 1533 1535 1537 1539 1540 1542 1543 1545 1546 1547 1548 1548 1548 1548 1548 1548
1481 1483 1485 1486 1488 1490 1492 1494 1496 1498 1499 1501 1503 1505 1507 1509 1510 1512 1514 1516 1518 1520 1522 1524 1526 1527 1529 1531 1534 1536 1537 1539 1540 1541 1542 1544 1545 1546 1546 1547 1547 1547 1546
1480 1482 1484 1485 1487 1489 1491 1493 1495 1497 1499 1501 1502 1504 1506 1508 1509 1511 1513 1515 1517 1519 1521 1523 1525 1527 1529 1531 1533 1535 1536 1537 1538 1540 1541 1542 1543 1544 1545 1546 1546 1545 1545
1480 1481 1483 1484 1486 1488 1490 1492 1494 1496 1498 1499 1501 1503 1505 1507 1508 1510 1513 1515 1517 1519 1521 1523 1526 1527 1529 1531 1532 1534 1536 1537 1538 1539 1541 1542 1543 1544 1545 1545 1545 1545 1545
1479 1481 1482 1484 1485 1487 1489 1491 1493 1495 1497 1499 1501 1502 1504 1506 1508 1510 1513 1515 1518 1520 1522 1524 1526 1528 1530 1531 1533 1535 1537 1538 1539 1540 1541 1542 1543 1544 1545 1545 1545 1545 1545
1479 1480 1482 1483 1485 1487 1489 1490 1492 1495 1496 1498 1500 1502 1505 1507 1509 1511 1513 1516 1519 1520 1523 1525 1527 1529 1531 1533 1535 1536 1538 1539 1540 1541 1542 1543 1544 1545 1546 1546 1546 1546 1546
1479 1480 1482 1483 1485 1487 1489 1490 1492 1494 1496 1498 1500 1503 1505 1507 1510 1512 1515 1517 1520 1522 1524 1527 1529 1531 1533 1535 1537 1538 1539 1541 1541 1542 1544 1545 1545 1546 1547 1547 1546 1547 1547
1478 1480 1481 1483 1484 1487 1489 1490 1492 1494 1497 1498 1501 1503 1506 1508 1511 1514 1517 1520 1522 1524 1526 1528 1530 1533 1535 1537 1539 1540 1541 1543 1544 1544 1545 1546 1547 1548 1548 1548 1549 1548 1547
1478 1479 1481 1482 1484 1487 1489 1491 1493 1495 1497 1499 1502 1504 1507 1510 1512 1515 1518 1521 1524 1526 1529 1531 1533 1535 1537 1539 1541 1543 1544 1545 1546 1547 1549 1550 1551 1551 1551 1550 1550 1549 1548
1478 1479 1481 1483 1486 1488 1490 1492 1494 1496 1498 1500 1504 1507 1510 1513 1515 1517 1520 1524 1527 1529 1532 1534 1535 1537 1539 1541 1542 1544 1545 1546 1548 1550 1551 1552 1552 1552 1552 1552 1551 1550 1549